EZY2050 EGHQ-EGCC

Flight info

Callsign EZY2050
Flight time 0h 39m
Altitude 31000
Route EPACE DCT ACCOP DCT MOCQO/N0455F300 P16 AXCIS
Aircraft A320/M-SDE3FGHIRWY/LB1

Departure

Time 2026-04-21 20:13
Airport Cornwall Airport Newquay (EGHQ)

Arrival

Time 2026-04-21 20:52
Airport Manchester Airport (EGCC)
Time Latitude Longitude Altitude Speed Heading
2026-04-21 20:02 50.44638 -5.00365 326 ft 0 kts 122°
2026-04-21 20:11 50.44635 -5.00362 246 ft 1 kts 139°
2026-04-21 20:11 50.44627 -5.00381 324 ft 6 kts 240°
2026-04-21 20:11 50.44648 -5.00514 323 ft 18 kts 300°
2026-04-21 20:11 50.44715 -5.00694 320 ft 20 kts 300°
2026-04-21 20:12 50.44786 -5.00884 315 ft 19 kts 301°
2026-04-21 20:12 50.44792 -5.01076 310 ft 18 kts 244°
2026-04-21 20:12 50.44685 -5.01122 310 ft 18 kts 148°
2026-04-21 20:12 50.44597 -5.00921 315 ft 41 kts 121°
2026-04-21 20:13 50.44330 -5.00208 331 ft 109 kts 121°
2026-04-21 20:13 50.43846 -4.98940 468 ft 150 kts 121°
2026-04-21 20:13 50.43304 -4.97524 1229 ft 150 kts 116°
2026-04-21 20:13 50.42768 -4.96109 1986 ft 157 kts 115°
2026-04-21 20:14 50.42467 -4.94342 2305 ft 184 kts 84°
2026-04-21 20:14 50.43127 -4.92429 2772 ft 219 kts 56°
2026-04-21 20:14 50.44192 -4.90649 3582 ft 232 kts 54°
2026-04-21 20:14 50.45334 -4.88821 4534 ft 238 kts 52°
2026-04-21 20:15 50.46505 -4.86925 5406 ft 246 kts 52°
2026-04-21 20:15 50.47711 -4.84943 6271 ft 254 kts 50°
2026-04-21 20:15 50.48946 -4.82887 7131 ft 261 kts 50°
2026-04-21 20:15 50.50204 -4.80779 8026 ft 265 kts 50°
2026-04-21 20:16 50.51477 -4.78628 8886 ft 271 kts 50°
2026-04-21 20:16 50.52757 -4.76456 9765 ft 276 kts 51°
2026-04-21 20:16 50.54079 -4.74207 10457 ft 288 kts 50°
2026-04-21 20:16 50.55494 -4.71792 10754 ft 311 kts 51°
2026-04-21 20:17 50.57012 -4.69188 11032 ft 334 kts 50°
2026-04-21 20:17 50.58608 -4.66440 11583 ft 345 kts 50°
2026-04-21 20:17 50.60229 -4.63654 12258 ft 351 kts 49°
2026-04-21 20:17 50.61896 -4.60799 12964 ft 357 kts 48°
2026-04-21 20:18 50.63041 -4.58839 13415 ft 362 kts 48°
2026-04-21 20:18 50.65332 -4.54914 14272 ft 370 kts 47°
2026-04-21 20:18 50.67090 -4.51893 14902 ft 375 kts 47°
2026-04-21 20:18 50.68863 -4.48837 15515 ft 380 kts 47°
2026-04-21 20:19 50.70660 -4.45730 16156 ft 384 kts 47°
2026-04-21 20:19 50.72476 -4.42590 16765 ft 389 kts 46°
2026-04-21 20:19 50.74310 -4.39412 17408 ft 393 kts 46°
2026-04-21 20:19 50.76167 -4.36189 18007 ft 398 kts 47°
2026-04-21 20:20 50.78018 -4.32973 18616 ft 402 kts 45°
2026-04-21 20:20 50.79915 -4.29675 19131 ft 407 kts 45°
2026-04-21 20:20 50.81836 -4.26335 19743 ft 409 kts 45°
2026-04-21 20:20 50.83760 -4.22989 20304 ft 413 kts 46°
2026-04-21 20:21 50.85681 -4.19649 20898 ft 414 kts 45°
2026-04-21 20:21 50.87626 -4.16254 21446 ft 417 kts 45°
2026-04-21 20:21 50.89585 -4.12825 21984 ft 421 kts 45°
2026-04-21 20:21 50.91559 -4.09368 22494 ft 424 kts 45°
2026-04-21 20:22 50.93546 -4.05879 22986 ft 427 kts 45°
2026-04-21 20:22 50.97571 -3.98794 23907 ft 435 kts 45°
2026-04-21 20:22 50.99605 -3.95209 24293 ft 438 kts 45°
2026-04-21 20:23 51.01651 -3.91605 24666 ft 441 kts 44°
2026-04-21 20:23 51.03689 -3.88014 25018 ft 444 kts 45°
2026-04-21 20:23 51.05770 -3.84341 25389 ft 446 kts 45°
2026-04-21 20:23 51.07864 -3.80639 25749 ft 449 kts 45°
2026-04-21 20:24 51.09930 -3.76972 26123 ft 452 kts 44°
2026-04-21 20:24 51.12041 -3.73218 26486 ft 454 kts 44°
2026-04-21 20:24 51.14151 -3.69462 26828 ft 457 kts 44°
2026-04-21 20:24 51.16276 -3.65678 27156 ft 459 kts 44°
2026-04-21 20:25 51.18414 -3.61866 27478 ft 462 kts 44°
2026-04-21 20:25 51.20696 -3.58240 27799 ft 461 kts 36°
2026-04-21 20:25 51.23259 -3.55220 28104 ft 458 kts 27°
2026-04-21 20:25 51.26080 -3.52872 28395 ft 455 kts 18°
2026-04-21 20:26 51.29035 -3.51267 28688 ft 452 kts
2026-04-21 20:26 51.32121 -3.50369 28976 ft 449 kts
2026-04-21 20:26 51.35244 -3.49768 29274 ft 451 kts
2026-04-21 20:26 51.38376 -3.49158 29529 ft 453 kts
2026-04-21 20:27 51.41470 -3.48550 29777 ft 454 kts
2026-04-21 20:27 51.44614 -3.47927 30083 ft 454 kts
2026-04-21 20:27 51.47765 -3.47300 30415 ft 454 kts
2026-04-21 20:27 51.50900 -3.46675 30708 ft 453 kts
2026-04-21 20:28 51.54032 -3.46048 31010 ft 453 kts
2026-04-21 20:28 51.57166 -3.45420 31228 ft 453 kts
2026-04-21 20:28 51.63354 -3.44183 31276 ft 447 kts
2026-04-21 20:29 51.69533 -3.42949 31282 ft 446 kts
2026-04-21 20:29 51.75657 -3.41724 31306 ft 446 kts
2026-04-21 20:30 51.81810 -3.40481 31312 ft 444 kts
2026-04-21 20:30 51.87926 -3.39248 31323 ft 441 kts
2026-04-21 20:31 51.94009 -3.38075 31315 ft 439 kts
2026-04-21 20:31 52.00096 -3.37479 31324 ft 436 kts 357°
2026-04-21 20:32 52.06132 -3.37218 31328 ft 435 kts 357°
2026-04-21 20:32 52.12197 -3.36901 31324 ft 435 kts 358°
2026-04-21 20:33 52.18210 -3.36473 31324 ft 435 kts 358°
2026-04-21 20:33 52.24269 -3.35995 31344 ft 435 kts 358°
2026-04-21 20:34 52.30318 -3.35538 31236 ft 434 kts 358°
2026-04-21 20:34 52.33312 -3.35319 30996 ft 433 kts 358°
2026-04-21 20:34 52.36329 -3.35097 30615 ft 432 kts 358°
2026-04-21 20:35 52.39348 -3.34873 29363 ft 436 kts 358°
2026-04-21 20:35 52.42403 -3.34650 28111 ft 440 kts 358°
2026-04-21 20:35 52.45437 -3.34431 26973 ft 442 kts 358°
2026-04-21 20:35 52.48479 -3.34208 26318 ft 434 kts 358°
2026-04-21 20:36 52.51481 -3.33983 25502 ft 429 kts 358°
2026-04-21 20:36 52.54456 -3.33760 24737 ft 424 kts 358°
2026-04-21 20:36 52.57398 -3.33540 23989 ft 420 kts 358°
2026-04-21 20:36 52.60296 -3.33324 23295 ft 413 kts 359°
2026-04-21 20:37 52.63182 -3.32759 22192 ft 421 kts
2026-04-21 20:37 52.65949 -3.31364 21484 ft 421 kts 17°
2026-04-21 20:37 52.68693 -3.29716 20797 ft 416 kts 17°
2026-04-21 20:37 52.71410 -3.28090 20148 ft 412 kts 18°
2026-04-21 20:38 52.74096 -3.26488 19327 ft 412 kts 19°
2026-04-21 20:38 52.75905 -3.25414 18634 ft 417 kts 20°
2026-04-21 20:38 52.78649 -3.23783 17576 ft 421 kts 20°
2026-04-21 20:38 52.82263 -3.21621 16660 ft 408 kts 21°
2026-04-21 20:39 52.84912 -3.20028 15390 ft 401 kts 22°
2026-04-21 20:39 52.86630 -3.18954 14714 ft 392 kts 25°
2026-04-21 20:39 52.88974 -3.16835 13760 ft 376 kts 38°
2026-04-21 20:39 52.90954 -3.14149 12869 ft 361 kts 47°
2026-04-21 20:40 52.92637 -3.11055 12025 ft 362 kts 51°
2026-04-21 20:40 52.94292 -3.07913 11173 ft 356 kts 51°
2026-04-21 20:40 52.95889 -3.04892 10626 ft 334 kts 52°
2026-04-21 20:40 52.97374 -3.02088 10408 ft 313 kts 51°
2026-04-21 20:41 52.98743 -2.99500 10155 ft 290 kts 51°
2026-04-21 20:41 53.00030 -2.97064 9885 ft 270 kts 52°
2026-04-21 20:41 53.01217 -2.94808 9741 ft 248 kts 52°
2026-04-21 20:41 53.02311 -2.92730 9604 ft 230 kts 52°
2026-04-21 20:42 53.03342 -2.90767 9470 ft 222 kts 52°
2026-04-21 20:42 53.04340 -2.88858 9337 ft 220 kts 53°
2026-04-21 20:42 53.05353 -2.86911 9205 ft 218 kts 53°
2026-04-21 20:42 53.06318 -2.85058 9072 ft 210 kts 53°
2026-04-21 20:43 53.07256 -2.83261 8939 ft 202 kts 53°
2026-04-21 20:43 53.08172 -2.81507 8653 ft 202 kts 53°
2026-04-21 20:43 53.09124 -2.79672 8126 ft 215 kts 53°
2026-04-21 20:43 53.10131 -2.77728 7542 ft 227 kts 53°
2026-04-21 20:44 53.11183 -2.75699 6931 ft 234 kts 54°
2026-04-21 20:44 53.12238 -2.73671 6356 ft 233 kts 54°
2026-04-21 20:44 53.13291 -2.71653 5798 ft 229 kts 54°
2026-04-21 20:44 53.14334 -2.69652 5247 ft 226 kts 54°
2026-04-21 20:45 53.15357 -2.67686 4701 ft 222 kts 55°
2026-04-21 20:45 53.16349 -2.65785 4473 ft 210 kts 55°
2026-04-21 20:45 53.17275 -2.64009 4381 ft 200 kts 55°
2026-04-21 20:45 53.18164 -2.62300 4298 ft 189 kts 56°
2026-04-21 20:46 53.19004 -2.60682 4212 ft 179 kts 56°
2026-04-21 20:46 53.19800 -2.59145 4139 ft 172 kts 57°
2026-04-21 20:46 53.20581 -2.57631 4064 ft 172 kts 56°
2026-04-21 20:46 53.21383 -2.56147 3990 ft 172 kts 57°
2026-04-21 20:47 53.22149 -2.54653 3921 ft 169 kts 57°
2026-04-21 20:47 53.22892 -2.53158 3842 ft 165 kts 57°
2026-04-21 20:47 53.23624 -2.51667 3734 ft 165 kts 57°
2026-04-21 20:47 53.24351 -2.50183 3552 ft 165 kts 58°
2026-04-21 20:48 53.25068 -2.48714 3338 ft 164 kts 58°
2026-04-21 20:48 53.25790 -2.47233 3127 ft 162 kts 58°
2026-04-21 20:48 53.26485 -2.45812 2919 ft 151 kts 58°
2026-04-21 20:48 53.27117 -2.44518 2699 ft 141 kts 58°
2026-04-21 20:49 53.27727 -2.43264 2508 ft 136 kts 58°
2026-04-21 20:49 53.28321 -2.42042 2274 ft 134 kts 58°
2026-04-21 20:49 53.28910 -2.40829 2087 ft 134 kts 58°
2026-04-21 20:49 53.29498 -2.39618 1897 ft 133 kts 58°
2026-04-21 20:50 53.30072 -2.38436 1720 ft 132 kts 57°
2026-04-21 20:50 53.30656 -2.37239 1539 ft 133 kts 56°
2026-04-21 20:50 53.31245 -2.36033 1320 ft 134 kts 55°
2026-04-21 20:50 53.31827 -2.34834 1140 ft 133 kts 54°
2026-04-21 20:51 53.32421 -2.33634 910 ft 133 kts 52°
2026-04-21 20:51 53.33003 -2.32402 704 ft 135 kts 53°
2026-04-21 20:51 53.33587 -2.31191 515 ft 134 kts 52°
2026-04-21 20:51 53.34165 -2.30004 400 ft 132 kts 53°
2026-04-21 20:52 53.34746 -2.28798 286 ft 133 kts 53°
2026-04-21 20:52 53.35293 -2.27651 241 ft 112 kts 53°
2026-04-21 20:52 53.35657 -2.26895 262 ft 43 kts 52°
2026-04-21 20:52 53.35792 -2.26683 270 ft 17 kts 11°
2026-04-21 20:53 53.35892 -2.26695 261 ft 0 kts 346°
2026-04-21 20:53 53.35895 -2.26696 261 ft 0 kts 346°
2026-04-21 20:55 53.35896 -2.26697 261 ft 2 kts 346°
2026-04-21 20:55 53.35922 -2.26750 256 ft 9 kts 274°
2026-04-21 20:55 53.35891 -2.26850 256 ft 13 kts 236°
2026-04-21 20:55 53.35836 -2.26985 256 ft 14 kts 239°
2026-04-21 20:56 53.35783 -2.27116 255 ft 13 kts 231°
2026-04-21 20:56 53.35728 -2.27230 255 ft 12 kts 231°
2026-04-21 20:56 53.35674 -2.27339 255 ft 13 kts 231°
2026-04-21 20:56 53.35619 -2.27483 245 ft 14 kts 265°
2026-04-21 20:57 53.35672 -2.27593 247 ft 12 kts 323°
2026-04-21 20:57 53.35755 -2.27658 250 ft 15 kts 338°
2026-04-21 20:57 53.35817 -2.27741 252 ft 0 kts 311°
2026-04-21 21:01 53.35824 -2.27754 252 ft 8 kts 311°
2026-04-21 21:01 53.35904 -2.27845 255 ft 15 kts 353°
2026-04-21 21:01 53.36001 -2.27913 255 ft 18 kts 318°
2026-04-21 21:01 53.36113 -2.28080 255 ft 24 kts 316°
2026-04-21 21:02 53.36235 -2.28285 255 ft 26 kts 315°
2026-04-21 21:02 53.36316 -2.28421 255 ft 0 kts 315°
2026-04-21 21:04 53.36317 -2.28422 255 ft 1 kts 315°
2026-04-21 21:04 53.36362 -2.28469 255 ft 10 kts 342°
2026-04-21 21:05 53.36432 -2.28513 255 ft 16 kts 326°
2026-04-21 21:05 53.36537 -2.28685 255 ft 23 kts 314°
2026-04-21 21:05 53.36639 -2.28905 255 ft 25 kts 314°
2026-04-21 21:05 53.36748 -2.29068 255 ft 15 kts 341°
2026-04-21 21:06 53.36818 -2.29029 255 ft 3 kts 111°
2026-04-21 21:06 53.36796 -2.29000 255 ft 4 kts 136°
2026-04-21 21:06 53.36780 -2.28973 255 ft 3 kts 135°
2026-04-21 21:06 53.36768 -2.28953 255 ft 1 kts 135°
2026-04-21 21:07 53.36767 -2.28952 255 ft 0 kts 135°